Content
SEND FEEDBACK

Daily
Averages
Monthly
Summary
United States of America

HALENANAHU RESERVOIR, HAWAII


Home > North America > United States > Hawaii
Elevation: 936 feet     Latitude: 22 01N     Longitude: 159 27W

WEATHER
 
SELECT A DAY
Number of Records: 219,516;   Date Range: 1/1/95 - 9/20/14
 
SHARE

PRINT THIS DATA

[ ← Previous Day ]
WEATHER ALMANAC - FEBRUARY 13, 2013
[ Next Day → ]
[ °C ]   °F
Weather ElementAverageHighLow
Temperature58.3 °F73.9 °F (11:53 am) (6:53 pm)
Dewpoint49 °F66.2 °F (11:34 pm) (7:00 pm)
Humidity68.3 %100 % (11:34 pm)55 % (8:53 am)
Barometer30.13 in30.17 in (9:53 am)30.06 in (2:53 pm)
Wind Speed14.3 mph20.7 mph (5:53 pm)
Wind Gust24.2 mph (6:53 am)
Weather ElementAverage
Visibility9.9 mi
Wind DirectionENE (67.2 °)

Weather ElementTotal
Precipitation0.08 in
Heating Degree Days28.1 (Base 65)
Averaged from 29 records on February 13, 2013
WEATHER CONDITIONS BREAKOUT
WIND DIRECTION BREAKOUT
WEATHER BY HOUR - FEBRUARY 13, 2013
[ °C ]   °F
Local TimeTemperatureDewpointHumidityBarometerVisibilityWind DirectionWind SpeedGust SpeedPrecipitationEventsConditions
1:53 AM70.0 °F55.9 °F61 %30.15 in10.0 miNE (50°)18.4 mphOvercast
2:53 AM70.0 °F57.9 °F65 %30.14 in10.0 miENE (60°)15.0 mphOvercast
3:53 AM69.1 °F57.0 °F65 %30.13 in10.0 miENE (70°)17.3 mphOvercast
4:53 AM70.0 °F55.9 °F61 %30.12 in10.0 miENE (60°)11.5 mphOvercast
5:53 AM70.0 °F57.0 °F63 %30.12 in10.0 miNE (50°)16.1 mph21.9 mphOvercast
6:53 AM69.1 °F57.9 °F68 %30.14 in10.0 miNE (40°)19.6 mph24.2 mph0.00 inOvercast
7:53 AM70.0 °F55.9 °F61 %30.16 in10.0 miNNE (30°)16.1 mphOvercast
8:53 AM71.1 °F54.0 °F55 %30.16 in10.0 miNNE (20°)15.0 mphOvercast
9:53 AM71.1 °F60.1 °F68 %30.17 in10.0 miENE (70°)17.3 mphOvercast
10:53 AM72.0 °F61.0 °F68 %30.17 in10.0 miENE (70°)15.0 mphMostly Cloudy
11:06 AM71.6 °F60.8 °F69 %30.17 in10.0 miEast (90°)13.8 mphOvercast
11:20 AM73.4 °F62.6 °F69 %30.16 in10.0 miENE (60°)13.8 mphOvercast
11:53 AM73.9 °F57.9 °F57 %30.15 in10.0 miNNE (20°)12.7 mphMostly Cloudy
12:53 PM73.9 °F60.1 °F62 %30.12 in10.0 miNNE (20°)13.8 mphScattered Clouds
1:53 PM73.0 °F60.1 °F64 %30.09 in10.0 miNE (40°)16.1 mphOvercast
2:53 PM71.1 °F61.0 °F70 %30.06 in10.0 miNE (40°)15.0 mphOvercast
3:53 PM73.0 °F60.1 °F64 %30.07 in10.0 miNE (50°)15.0 mphOvercast
4:53 PM72.0 °F61.0 °F68 %30.07 in10.0 miENE (60°)10.4 mphOvercast
5:53 PM71.1 °F61.0 °F70 %30.09 in10.0 miNE (50°)20.7 mph24.2 mphMostly Cloudy
6:53 PM0.0 °F0.0 °F30.11 in10.0 miNE (50°)11.5 mph0.00 inOvercast
7:53 PM0.0 °F0.0 °F30.13 in10.0 miNorth (360°)6.9 mphMostly Cloudy
8:46 PM0.0 °F0.0 °F30.13 in8.0 miNNE (30°)10.4 mph0.04 inRainLight Rain
8:53 PM0.0 °F0.0 °F30.13 in10.0 miNE (40°)17.3 mph0.04 inOvercast
9:00 PM0.0 °F0.0 °F30.14 in10.0 miNE (40°)15.0 mphMostly Cloudy
9:53 PM68.0 °F60.8 °F78 %30.13 in10.0 miNNE (20°)15.0 mphMostly Cloudy
10:49 PM66.2 °F60.8 °F83 %30.13 in10.0 miNorth (350°)8.1 mphOvercast
10:53 PM66.0 °F60.1 °F81 %30.13 in10.0 miNE (40°)10.4 mph20.7 mphOvercast
11:34 PM66.2 °F66.2 °F100 %30.14 in10.0 miNE (50°)16.1 mphOvercast
11:53 PM68.0 °F57.2 °F68 %30.13 in10.0 miNNE (20°)12.7 mphOvercast
Hourly data recorded from PHLI, located miles away from Halenanahu Reservoir, Hawaii







STORIES FROM OUR PARTNERS